Location: Oshawa
(43.9000°N, 78.8670°W)
Time: 08:11:41
(UTC-04:00)

Courier 1B - All Passes

Search period start: 30 October 2014 00:00
Search period end: 08 November 2014 23:00
Orbit: 963 x 1209 km, 28.3° (Epoch: 29 October)

Date Brightness Start Highest point End Pass type
(mag) Time Alt. Az. Time Alt. Az. Time Alt. Az.
30 Oct - 07:59:09 10° S 08:02:39 14° SSE 08:06:14 10° SE daylight
30 Oct - 09:50:09 10° SW 09:55:38 23° S 10:01:19 10° SE daylight
30 Oct - 11:43:18 10° SW 11:48:49 22° S 11:54:29 10° SE daylight
30 Oct - 13:38:45 10° SW 13:41:54 13° SSW 13:45:05 10° S daylight
31 Oct - 07:07:35 10° SSE 07:09:12 11° SSE 07:10:51 10° SE visible
31 Oct - 08:56:57 10° SW 09:02:04 21° S 09:07:22 10° SE daylight
31 Oct - 10:49:39 10° SW 10:55:13 23° S 11:00:58 10° SE daylight
31 Oct - 12:44:09 10° SW 12:48:21 16° SSW 12:52:36 10° SSE daylight
01 Nov - 08:03:58 10° SSW 08:08:33 18° SSE 08:13:18 10° SE daylight
01 Nov - 09:56:08 10° SW 10:01:37 23° S 10:07:19 10° SE daylight
01 Nov - 11:50:01 10° SW 11:54:46 18° SSW 11:59:38 10° SSE daylight
02 Nov - 06:11:15 10° SSW 06:15:04 16° SSE 06:19:01 10° SE visible
02 Nov - 08:02:45 10° SW 08:08:03 23° S 08:13:35 10° SE daylight
02 Nov - 09:56:09 10° SW 10:01:12 20° SSW 10:06:24 10° SSE daylight
02 Nov - 11:53:43 10° SSW 11:54:12 10° SSW 11:54:41 10° SSW daylight
03 Nov - 05:19:02 10° S 05:21:39 12° SSE 05:24:18 10° SE visible
03 Nov - 07:09:31 10° SW 07:14:31 21° S 07:19:44 10° SE daylight
03 Nov - 09:02:27 10° SW 09:07:37 21° S 09:12:59 10° SE daylight
03 Nov - 10:57:38 10° SW 11:00:41 13° SSW 11:03:46 10° S daylight
04 Nov - 06:16:26 10° SSW 06:21:01 19° SSE 06:25:47 10° SE visible
04 Nov - 08:08:55 10° SW 08:14:04 22° S 08:19:27 10° SE daylight
04 Nov - 10:03:13 10° SW 10:07:09 15° SSW 10:11:10 10° SSE daylight
05 Nov - 05:23:34 10° SSW 05:27:34 17° SSE 05:31:42 10° SE visible
05 Nov - 07:15:30 10° SW 07:20:32 22° S 07:25:48 10° SE daylight
05 Nov - 09:09:13 10° SW 09:13:37 17° SSW 09:18:09 10° SSE daylight
06 Nov - 04:31:00 10° S 04:34:09 14° SSE 04:37:22 10° SE visible
06 Nov - 06:22:12 10° SW 06:27:02 21° S 06:32:04 10° SE visible
06 Nov - 08:15:26 10° SW 08:20:05 19° S 08:24:55 10° SSE daylight
07 Nov - 03:39:12 10° S 03:40:46 11° SSE 03:42:21 10° SE visible
07 Nov - 05:29:01 10° SW 05:33:34 20° S 05:38:16 10° SE visible
07 Nov - 07:21:50 10° SW 07:26:35 20° S 07:31:31 10° SE daylight
07 Nov - 09:16:56 10° SW 09:19:34 12° SSW 09:22:15 10° S daylight
08 Nov - 04:36:00 10° SSW 04:40:08 18° SSE 04:44:22 10° SE visible
08 Nov - 06:28:20 10° SW 06:33:05 21° S 06:38:00 10° SE visible
08 Nov - 08:22:34 10° SW 08:26:05 15° SSW 08:29:41 10° SSE daylight
